Главная страница
METAR-TAF:

METAR-TAF

Аэропорты :

Казвин, Иран

широта: 36-15N, долгота: 050-00E, высота над уровнем моря: 1278 м

Текущие метеонаблюдения

Эта сводка был подготовлена 35 минут назад, в 02:00 UTC
Ветер 2 Узел от северно-северо-западный
Температура 3°C
Влажность 81%
Давление 1017 hPa
Видимость 10 км и более
Нет облачности ниже 1500 м, и нет кучево-дождевой облачности

METAR: OIIK 150200Z 34002KT CAVOK 03/00 Q1017

Время: 07:05 (02:35 UTC)


TAF: отсутствует

Метеонаблюдения и прогнозы для более 4000 аэропортов (сводки METAR и TAF).

Имеющиеся станции представлены на карте желтыми и красными точками.

Чтобы увидеть название станции, наведите на нее мышь.

Затем щелкните, чтобы увидеть метеонаблюдения и метеопрогнозы.

Управление картой: чтобы увеличить масштаб, щелкните зеленые кнопки с черным крестиком; чтобы уменьшить масштаб, щелкните зеленую кнопку с тире; для просмотра соседних карт щелкайте зеленые стрелки.


METAR-TAF: